Date String (YYYY-MM-DD hh:mm:ss) UTC,Instrument flags,absolute air pressure of the measurement (hPa),sample flow rate (lpm),inlet stack bypass flow (lpm),air temperature of the measurement (°C),ambient temperature measured by the external sensor (°C),aerosol sample conditioner tube jacket temperature (°C),OPC LED temperature (°C),internal box temperature (°C),relative humidity of the measurement (%),span deviation,mass concentration of particles derived from Lorenz-Mie calculation of OPC scattering (μg/m³),mass concentration of particles derived from Lorenz-Mie calculation of OPC scattering (μg/m³),mass concentration of particles derived from Lorenz-Mie calculation of OPC scattering (μg/m³)
DateTimeUTC,F1_M11,P_M11,Q1_M11,Q2_M11,T1_M11,T2_M11,T3_M11,T4_M11,T5_M11,U1_M11,ZSPAN_M11,X2_M11,X0_M11,X1_M11
2023-09-30 01:00:00,SystemResetWarning,0828.2,4.99,000.00,028.2,024.9,000.0,036.5,029.9,18.0,0000.0,0005.75,0019.26,0004.11
2023-09-30 01:01:00,SystemResetWarning,0828.2,5.02,000.00,028.1,024.0,000.0,036.4,029.7,18.1,0000.0,0005.73,0017.94,0004.11
2023-09-30 01:02:00,SystemResetWarning,0828.2,5.01,000.00,028.1,024.1,000.0,036.4,029.6,18.0,0000.0,0005.73,0016.27,0004.12
2023-09-30 01:03:00,SystemResetWarning,0828.2,5.00,000.00,028.0,024.5,000.0,036.4,029.5,18.1,0000.0,0005.78,0015.98,0004.13
2023-09-30 01:04:00,SystemResetWarning,0828.2,5.00,000.00,027.9,025.0,000.0,036.4,029.5,18.2,0000.0,0005.73,0015.44,0004.13
2023-09-30 01:05:00,SystemResetWarning,0828.2,5.00,000.00,027.9,025.4,000.0,036.4,029.6,18.2,0000.0,0005.65,0015.28,0004.14
2023-09-30 01:06:00,SystemResetWarning,0828.2,5.00,000.00,028.0,025.8,000.0,036.4,029.7,18.2,0000.0,0005.59,0014.89,0004.13
2023-09-30 01:07:00,SystemResetWarning,0828.2,4.99,000.00,028.0,026.2,000.0,036.4,029.8,18.2,0000.0,0005.58,0014.64,0004.13
2023-09-30 01:08:00,SystemResetWarning,0828.3,4.99,000.00,028.0,026.5,000.0,036.4,029.9,18.1,0000.0,0005.60,0015.90,0004.13
2023-09-30 01:09:00,SystemResetWarning,0828.3,5.00,000.00,028.1,026.7,000.0,036.4,029.9,18.1,0000.0,0005.64,0015.82,0004.12
2023-09-30 01:10:00,SystemResetWarning,0828.3,5.01,000.00,028.1,026.9,000.0,036.5,030.0,17.8,0000.0,0005.67,0016.95,0004.12
2023-09-30 01:11:00,SystemResetWarning,0828.3,5.01,000.00,028.2,027.1,000.0,036.5,030.1,17.7,0000.0,0005.71,0018.78,0004.12
2023-09-30 01:12:00,SystemResetWarning,0828.4,5.00,000.00,028.2,027.3,000.0,036.5,030.1,17.5,0000.0,0005.78,0020.60,0004.13
2023-09-30 01:13:00,SystemResetWarning,0828.3,4.98,000.00,028.3,026.6,000.0,036.5,030.1,17.6,0000.0,0005.80,0021.62,0004.14
2023-09-30 01:14:00,SystemResetWarning,0828.3,5.01,000.00,028.2,024.7,000.0,036.5,029.9,17.7,0000.0,0005.79,0021.64,0004.14
2023-09-30 01:15:00,SystemResetWarning,0828.3,5.01,000.00,028.1,023.9,000.0,036.4,029.7,17.8,0000.0,0005.76,0021.90,0004.14
2023-09-30 01:16:00,SystemResetWarning,0828.3,5.01,000.00,028.0,024.1,000.0,036.4,029.6,17.7,0000.0,0005.82,0022.24,0004.13
2023-09-30 01:17:00,SystemResetWarning,0828.3,5.00,000.00,027.9,024.5,000.0,036.4,029.5,17.8,0000.0,0005.81,0022.64,0004.13
2023-09-30 01:18:00,SystemResetWarning,0828.3,5.00,000.00,027.9,025.0,000.0,036.4,029.6,17.8,0000.0,0005.82,0022.80,0004.13
2023-09-30 01:19:00,SystemResetWarning,0828.3,5.00,000.00,027.9,025.5,000.0,036.4,029.6,17.9,0000.0,0005.84,0021.03,0004.14
2023-09-30 01:20:00,SystemResetWarning,0828.3,5.00,000.00,027.9,025.8,000.0,036.4,029.7,18.0,0000.0,0005.84,0020.97,0004.14
2023-09-30 01:21:00,SystemResetWarning,0828.4,4.99,000.00,028.0,026.2,000.0,036.4,029.8,17.9,0000.0,0005.80,0020.74,0004.13
2023-09-30 01:22:00,SystemResetWarning,0828.3,4.99,000.00,028.0,026.5,000.0,036.4,029.8,17.8,0000.0,0005.69,0019.22,0004.11
2023-09-30 01:23:00,SystemResetWarning,0828.3,5.00,000.00,028.1,026.7,000.0,036.5,029.9,17.4,0000.0,0005.60,0018.84,0004.08
2023-09-30 01:24:00,SystemResetWarning,0828.3,5.00,000.00,028.1,026.9,000.0,036.5,030.0,17.3,0000.0,0005.64,0019.48,0004.06
2023-09-30 01:25:00,SystemResetWarning,0828.3,5.00,000.00,028.2,027.1,000.0,036.5,030.1,17.3,0000.0,0005.65,0019.86,0004.05
2023-09-30 01:26:00,SystemResetWarning,0828.3,5.00,000.00,028.2,027.3,000.0,036.5,030.1,17.3,0000.0,0005.72,0019.72,0004.05
2023-09-30 01:27:00,SystemResetWarning,0828.4,5.00,000.00,028.3,027.1,000.0,036.5,030.2,17.2,0000.0,0005.69,0019.61,0004.04
2023-09-30 01:28:00,SystemResetWarning,0828.4,4.98,000.00,028.3,025.5,000.0,036.5,030.0,16.9,0000.0,0005.75,0019.27,0004.04
2023-09-30 01:29:00,SystemResetWarning,0828.3,5.00,000.00,028.2,024.0,000.0,036.5,029.8,17.2,0000.0,0005.76,0019.01,0004.03
2023-09-30 01:30:00,SystemResetWarning,0828.3,5.01,000.00,028.1,024.0,000.0,036.4,029.6,17.3,0000.0,0005.74,0020.67,0004.01
2023-09-30 01:31:00,SystemResetWarning,0828.3,5.01,000.00,028.0,024.3,000.0,036.4,029.5,17.5,0000.0,0005.70,0021.58,0004.00
2023-09-30 01:32:00,SystemResetWarning,0828.3,5.00,000.00,027.9,024.8,000.0,036.4,029.5,17.5,0000.0,0005.73,0021.63,0004.00
2023-09-30 01:33:00,SystemResetWarning,0828.3,5.00,000.00,027.9,025.2,000.0,036.4,029.6,17.6,0000.0,0005.78,0021.38,0004.00
2023-09-30 01:34:00,SystemResetWarning,0828.4,5.00,000.00,027.9,025.7,000.0,036.4,029.6,17.5,0000.0,0005.82,0019.82,0004.00
2023-09-30 01:35:00,SystemResetWarning,0828.4,5.00,000.00,028.0,026.0,000.0,036.4,029.7,17.6,0000.0,0005.77,0018.15,0004.01
2023-09-30 01:36:00,SystemResetWarning,0828.4,4.99,000.00,028.0,026.3,000.0,036.4,029.8,17.7,0000.0,0005.76,0018.53,0004.01
2023-09-30 01:37:00,SystemResetWarning,0828.4,4.99,000.00,028.0,026.6,000.0,036.5,029.9,17.6,0000.0,0005.70,0018.39,0004.01
2023-09-30 01:38:00,SystemResetWarning,0828.4,5.00,000.00,028.1,026.8,000.0,036.5,029.9,17.5,0000.0,0005.68,0018.49,0004.00
2023-09-30 01:39:00,SystemResetWarning,0828.4,5.00,000.00,028.1,027.0,000.0,036.5,030.0,17.5,0000.0,0005.65,0018.88,0003.99
2023-09-30 01:40:00,SystemResetWarning,0828.4,5.00,000.00,028.2,027.2,000.0,036.5,030.0,17.5,0000.0,0005.66,0020.58,0003.98
2023-09-30 01:41:00,SystemResetWarning,0828.4,5.00,000.00,028.2,027.3,000.0,036.5,030.1,17.6,0000.0,0005.66,0021.24,0003.98
2023-09-30 01:42:00,SystemResetWarning,0828.5,5.01,000.00,028.3,027.4,000.0,036.6,030.2,17.7,0000.0,0005.70,0019.85,0003.99
2023-09-30 01:43:00,SystemResetWarning,0828.5,4.99,000.00,028.3,026.4,000.0,036.6,030.1,17.8,0000.0,0005.70,0019.57,0003.98
2023-09-30 01:44:00,SystemResetWarning,0828.4,5.01,000.00,028.2,024.5,000.0,036.5,029.9,17.6,0000.0,0005.68,0021.41,0003.98
2023-09-30 01:45:00,SystemResetWarning,0828.4,5.00,000.00,028.2,024.0,000.0,036.5,029.7,17.7,0000.0,0005.67,0022.86,0003.98
2023-09-30 01:46:00,SystemResetWarning,0828.4,5.02,000.00,028.1,024.2,000.0,036.4,029.5,17.7,0000.0,0005.71,0024.04,0003.98
2023-09-30 01:47:00,SystemResetWarning,0828.4,5.01,000.00,028.0,024.6,000.0,036.4,029.5,17.8,0000.0,0005.74,0024.86,0003.97
2023-09-30 01:48:00,SystemResetWarning,0828.4,4.99,000.00,027.9,025.0,000.0,036.4,029.6,17.6,0000.0,0005.68,0025.26,0003.96
2023-09-30 01:49:00,SystemResetWarning,0828.5,5.00,000.00,027.9,025.5,000.0,036.4,029.6,17.4,0000.0,0005.64,0026.12,0003.96
2023-09-30 01:50:00,SystemResetWarning,0828.5,5.01,000.00,028.0,025.9,000.0,036.4,029.7,17.3,0000.0,0005.64,0026.36,0003.97
2023-09-30 01:51:00,SystemResetWarning,0828.5,5.00,000.00,028.0,026.2,000.0,036.5,029.8,17.3,0000.0,0005.64,0026.08,0003.98
2023-09-30 01:52:00,SystemResetWarning,0828.6,4.99,000.00,028.0,026.5,000.0,036.5,029.8,17.2,0000.0,0005.62,0025.38,0003.98
2023-09-30 01:53:00,SystemResetWarning,0828.6,5.00,000.00,028.1,026.7,000.0,036.5,029.9,17.1,0000.0,0005.60,0027.11,0003.99
2023-09-30 01:54:00,SystemResetWarning,0828.5,5.00,000.00,028.1,026.9,000.0,036.5,030.0,17.0,0000.0,0005.56,0027.90,0003.98
2023-09-30 01:55:00,SystemResetWarning,0828.6,5.01,000.00,028.2,027.1,000.0,036.5,030.0,16.8,0000.0,0005.53,0025.96,0003.98
2023-09-30 01:56:00,SystemResetWarning,0828.6,5.01,000.00,028.2,027.2,000.0,036.6,030.1,16.8,0000.0,0005.54,0024.53,0003.99
2023-09-30 01:57:00,SystemResetWarning,0828.6,4.99,000.00,028.3,027.3,000.0,036.6,030.2,16.7,0000.0,0005.52,0024.77,0003.99
2023-09-30 01:58:00,SystemResetWarning,0828.6,4.99,000.00,028.3,026.3,000.0,036.6,030.1,16.6,0000.0,0005.54,0024.76,0003.99
2023-09-30 01:59:00,SystemResetWarning,0828.6,5.01,000.00,028.2,025.0,000.0,036.5,029.9,16.6,0000.0,0005.61,0023.90,0004.00
